Showing default

ORBCOMM FM 111, 40089

Orbit data source: Space-Track

ORBCOMM FM 111, 40089 is a payload satellite owned by Orbcomm (US) in LEO that was launched on Mon, 14 Jul 2014 UTC via an FALCON 9 launch vehicle from the Air Force Eastern Test Range (AFETR). Payload-class satellites include a variety of spacecraft equipped with specific instruments for various scientific and technological missions. These include communications satellites like Starlink; space stations such as the ISS; scientific satellites like the Hubble; Earth observation satellites from companies like Planet Labs, Umbra, and HawkEye 360; GPS; miniature CubeSats for education and research; and military/defense satellites.

Loading next visibility...
Identifier
40089, 2014-040D
Orbit
LEO
Country
Flag of USUS / ORB
Related business
Manufacturer
SNC Louisville
Mission
Non-operational Commercial Communications
Bus & Motor
SN-100A, Unknown motor
Mass
172 kg wet, 158 kg dry
Launch date (UTC)
2014-07-14 (12 years ago)
Launch vehicle
FALCON 9
Launch site
Air Force Eastern Test Range (AFETR)
Object type
Payload
Rocket body
Debris
Shape & HBR
Box + 1 Pan + 1 Ant, 5.3 m
Radar Cross Section
2.222 m², Medium (>0.1 m² and < 1m²)

Expand to show TLE details & history
Last TLE update: 11 hours ago

TLE from 11 hours ago
0 ORBCOMM FM 111
1 40089U 14040D   26178.17049449  .00002532  00000-0  28847-3 0  9996
2 40089  47.0013 353.8186 0028798 193.5277 166.4852 14.88867927646064
Epoch: 2026-06-27T04:05Z
TLE epoch observation values (Epoch: 2026-06-27T04:05:30.723Z)
Latitude
-0.00001°
Longitude
17.15209°
Altitude
621.235 km
Speed
7.539 km/s
True Right ascension
23h 35m 16s
True Declination
0° 00' 00"
Sunlit
Object was in daylight at epoch
Visualization orbit readout
Latitude
Unknown
Longitude
Unknown
Altitude
Unknown
Speed
Unknown
Apparent Right ascension
Unknown
Apparent Declination
Unknown
Sunlit
N/A
Visualization observer readout
Local Sidereal Time
01:58:05
Azimuth
Unknown
Elevation
Unknown
Doppler factor
Unknown
Orbital elements
Apogee altitude
622.827 km
Perigee altitude
582.62 km
Semi-major axis
6,980.86 km
Eccentricity
0.00288
Inclination
47.0013°
RAAN
353.8186°
Arg. of periapsis
193.5277°
True anomaly
166.56205°
Mean anomaly
166.4852°
Eccentric anomaly
166.52365°
Mean motion
3.72117 °/min
Orbital period
96.74 mins
BSTAR
0.00028847
Loading maneuver chart data...
Computing Atmospheric mass density...
Loading historical data...
Loading historical data...
Loading historical data...
Loading historical data...
Loading historical data...
Loading historical data...
Loading historical data...

Documentation

Showing up to 5 results
|